Previsão horária em Jumièges

Hoje, 18 Junho, Sexta-feira

Tempo Temperatura Precipitação Vento Pressão Humidade
00:00 +18°C° 0 mm 2 m/s 751 mmHg 96%
01:00 +18°C° 0.1 mm 2 m/s 751 mmHg 96%
02:00 +18°C° 0.1 mm 2 m/s 751 mmHg 96%
03:00 +17°C° 0.1 mm 2 m/s 751 mmHg 96%
04:00 +18°C° 0.6 mm 3 m/s 751 mmHg 96%
05:00 +18°C° 0.6 mm 3 m/s 750 mmHg 96%
06:00 +19°C° 0 mm 3 m/s 750 mmHg 96%
07:00 +20°C° 0.1 mm 3 m/s 750 mmHg 90%
08:00 +21°C° 0.1 mm 4 m/s 750 mmHg 85%
09:00 +22°C° 0.1 mm 4 m/s 750 mmHg 79%
10:00 +22°C° 0.5 mm 5 m/s 750 mmHg 82%
11:00 +21°C° 0.5 mm 5 m/s 750 mmHg 85%
12:00 +21°C° 0.5 mm 6 m/s 750 mmHg 87%
13:00 +21°C° 0.4 mm 6 m/s 750 mmHg 87%
14:00 +21°C° 0.4 mm 6 m/s 750 mmHg 88%
15:00 +21°C° 0.4 mm 7 m/s 750 mmHg 88%
16:00 +20°C° 0.4 mm 7 m/s 751 mmHg 90%
17:00 +18°C° 0.4 mm 7 m/s 751 mmHg 91%
18:00 +17°C° 0.4 mm 7 m/s 752 mmHg 93%
19:00 +16°C° 0 mm 6 m/s 752 mmHg 93%
20:00 +15°C° 0 mm 5 m/s 753 mmHg 93%
21:00 +14°C° 0 mm 5 m/s 754 mmHg 94%
22:00 +14°C° 0 mm 4 m/s 754 mmHg 92%
23:00 +14°C° 0 mm 4 m/s 754 mmHg 90%

Amanhã, 19 Junho, Sábado

Tempo Temperatura Precipitação Vento Pressão Humidade
00:00 +14°C° 0 mm 3 m/s 754 mmHg 89%
01:00 +15°C° 0 mm 2 m/s 754 mmHg 89%
02:00 +15°C° 0 mm 2 m/s 754 mmHg 90%
03:00 +15°C° 0 mm 1 m/s 754 mmHg 90%
04:00 +15°C° 0 mm 1 m/s 754 mmHg 88%
05:00 +15°C° 0 mm 1 m/s 754 mmHg 87%
06:00 +16°C° 0 mm 1 m/s 754 mmHg 85%
07:00 +16°C° 0 mm 1 m/s 754 mmHg 83%
08:00 +18°C° 0 mm 1 m/s 754 mmHg 81%
09:00 +18°C° 0 mm 2 m/s 754 mmHg 78%
10:00 +19°C° 0 mm 2 m/s 753 mmHg 75%
11:00 +21°C° 0 mm 2 m/s 753 mmHg 72%
12:00 +23°C° 0 mm 2 m/s 753 mmHg 70%
13:00 +24°C° 0 mm 2 m/s 752 mmHg 67%
14:00 +25°C° 0 mm 3 m/s 752 mmHg 65%
15:00 +26°C° 0 mm 3 m/s 751 mmHg 63%
16:00 +25°C° 0.1 mm 3 m/s 750 mmHg 70%
17:00 +23°C° 0.1 mm 4 m/s 749 mmHg 76%
18:00 +22°C° 0.1 mm 4 m/s 749 mmHg 82%
19:00 +21°C° 2.4 mm 4 m/s 748 mmHg 87%
20:00 +20°C° 2.4 mm 3 m/s 748 mmHg 92%
21:00 +19°C° 2.4 mm 3 m/s 747 mmHg 97%
22:00 +18°C° 0.5 mm 4 m/s 747 mmHg 96%
23:00 +18°C° 0.5 mm 4 m/s 747 mmHg 96%

Depois de amanhã, 20 Junho, Domingo

Tempo Temperatura Precipitação Vento Pressão Humidade
00:00 +16°C° 0.5 mm 5 m/s 747 mmHg 96%
01:00 +16°C° 0 mm 5 m/s 747 mmHg 96%
02:00 +15°C° 0 mm 4 m/s 747 mmHg 96%
03:00 +15°C° 0 mm 4 m/s 747 mmHg 96%
04:00 +15°C° 0 mm 4 m/s 748 mmHg 95%
05:00 +15°C° 0 mm 4 m/s 748 mmHg 94%
06:00 +16°C° 0 mm 3 m/s 748 mmHg 94%
07:00 +17°C° 0 mm 4 m/s 748 mmHg 89%
08:00 +18°C° 0 mm 4 m/s 748 mmHg 84%
09:00 +18°C° 0 mm 4 m/s 748 mmHg 79%
10:00 +19°C° 0 mm 3 m/s 748 mmHg 75%
11:00 +20°C° 0 mm 3 m/s 748 mmHg 71%
12:00 +21°C° 0 mm 3 m/s 748 mmHg 67%
13:00 +21°C° 0.3 mm 2 m/s 748 mmHg 70%
14:00 +21°C° 0.3 mm 2 m/s 747 mmHg 73%
15:00 +21°C° 0.3 mm 2 m/s 747 mmHg 75%
16:00 +20°C° 1 mm 2 m/s 747 mmHg 80%
17:00 +19°C° 1 mm 2 m/s 747 mmHg 84%
18:00 +19°C° 1 mm 2 m/s 747 mmHg 89%
19:00 +18°C° 0.4 mm 2 m/s 747 mmHg 91%
20:00 +17°C° 0.4 mm 2 m/s 747 mmHg 94%
21:00 +16°C° 0.4 mm 2 m/s 747 mmHg 96%
22:00 +16°C° 0.1 mm 2 m/s 747 mmHg 96%
23:00 +15°C° 0.1 mm 2 m/s 747 mmHg 96%

21 Junho, Segunda-feira

Tempo Temperatura Precipitação Vento Pressão Humidade
00:00 +15°C° 0.1 mm 2 m/s 747 mmHg 97%
01:00 +15°C° 0.1 mm 2 m/s 747 mmHg 97%
02:00 +15°C° 0.1 mm 2 m/s 747 mmHg 97%
03:00 +15°C° 0.1 mm 2 m/s 747 mmHg 98%
04:00 +15°C° 0 mm 1 m/s 747 mmHg 97%
05:00 +16°C° 0 mm 1 m/s 747 mmHg 96%
06:00 +16°C° 0 mm 1 m/s 747 mmHg 95%
07:00 +18°C° 0.2 mm 1 m/s 747 mmHg 92%
08:00 +18°C° 0.2 mm 2 m/s 747 mmHg 88%
09:00 +19°C° 0.2 mm 2 m/s 747 mmHg 84%
10:00 +19°C° 0.8 mm 2 m/s 747 mmHg 84%
11:00 +19°C° 0.8 mm 3 m/s 747 mmHg 83%
12:00 +20°C° 0.8 mm 3 m/s 748 mmHg 82%
13:00 +20°C° 0.6 mm 3 m/s 748 mmHg 80%
14:00 +20°C° 0.6 mm 3 m/s 748 mmHg 77%
15:00 +21°C° 0.6 mm 3 m/s 748 mmHg 75%
16:00 +20°C° 0.5 mm 3 m/s 748 mmHg 78%
17:00 +19°C° 0.5 mm 3 m/s 748 mmHg 82%
18:00 +19°C° 0.5 mm 3 m/s 748 mmHg 85%
19:00 +18°C° 0.1 mm 3 m/s 749 mmHg 89%
20:00 +16°C° 0.1 mm 3 m/s 749 mmHg 92%
21:00 +14°C° 0.1 mm 3 m/s 749 mmHg 96%
22:00 +14°C° 0 mm 3 m/s 749 mmHg 96%
23:00 +15°C° 0 mm 2 m/s 750 mmHg 96%

22 Junho, Terça-feira

Tempo Temperatura Precipitação Vento Pressão Humidade
00:00 +15°C° 0 mm 2 m/s 750 mmHg 96%
01:00 +15°C° 0 mm 2 m/s 750 mmHg 96%
02:00 +14°C° 0 mm 3 m/s 750 mmHg 96%
03:00 +14°C° 0 mm 3 m/s 750 mmHg 96%
04:00 +14°C° 0.2 mm 3 m/s 750 mmHg 96%
05:00 +14°C° 0.2 mm 3 m/s 751 mmHg 96%
06:00 +14°C° 0.2 mm 3 m/s 751 mmHg 96%
07:00 +14°C° 0.2 mm 4 m/s 751 mmHg 95%
08:00 +14°C° 0.2 mm 4 m/s 751 mmHg 94%
09:00 +14°C° 0.2 mm 4 m/s 752 mmHg 93%
10:00 +14°C° 0.3 mm 5 m/s 752 mmHg 93%
11:00 +14°C° 0.3 mm 6 m/s 752 mmHg 92%
12:00 +14°C° 0.3 mm 6 m/s 753 mmHg 92%
13:00 +14°C° 0.2 mm 7 m/s 753 mmHg 92%
14:00 +14°C° 0.2 mm 7 m/s 753 mmHg 93%
15:00 +14°C° 0.2 mm 7 m/s 754 mmHg 93%
16:00 +12°C° 0.2 mm 7 m/s 754 mmHg 92%
17:00 +12°C° 0.2 mm 8 m/s 754 mmHg 92%
18:00 +12°C° 0.2 mm 8 m/s 755 mmHg 92%
19:00 +11°C° 0 mm 8 m/s 755 mmHg 91%
20:00 +11°C° 0 mm 8 m/s 756 mmHg 90%
21:00 +11°C° 0 mm 7 m/s 756 mmHg 89%
22:00 +11°C° 0 mm 7 m/s 757 mmHg 88%
23:00 +11°C° 0 mm 7 m/s 757 mmHg 87%

23 Junho, Quarta-feira

Tempo Temperatura Precipitação Vento Pressão Humidade
00:00 +11°C° 0 mm 7 m/s 757 mmHg 87%
01:00 +11°C° 0 mm 6 m/s 757 mmHg 86%
02:00 +11°C° 0 mm 6 m/s 757 mmHg 86%
03:00 +11°C° 0 mm 6 m/s 757 mmHg 85%
04:00 +11°C° 0.1 mm 6 m/s 758 mmHg 85%
05:00 +11°C° 0.1 mm 6 m/s 758 mmHg 85%
06:00 +11°C° 0.1 mm 6 m/s 758 mmHg 86%
07:00 +11°C° 0.1 mm 6 m/s 758 mmHg 85%
08:00 +11°C° 0.1 mm 6 m/s 758 mmHg 85%
09:00 +13°C° 0.1 mm 6 m/s 758 mmHg 84%
10:00 +13°C° 0 mm 6 m/s 759 mmHg 82%
11:00 +13°C° 0 mm 6 m/s 759 mmHg 79%
12:00 +13°C° 0 mm 6 m/s 759 mmHg 77%
13:00 +13°C° 0 mm 6 m/s 759 mmHg 77%
14:00 +13°C° 0 mm 5 m/s 759 mmHg 77%
15:00 +13°C° 0 mm 5 m/s 760 mmHg 77%
16:00 +13°C° 0 mm 5 m/s 760 mmHg 77%
17:00 +13°C° 0 mm 4 m/s 760 mmHg 77%
18:00 +13°C° 0 mm 4 m/s 760 mmHg 77%
19:00 +12°C° 0 mm 3 m/s 760 mmHg 80%
20:00 +11°C° 0 mm 3 m/s 761 mmHg 84%
21:00 +10°C° 0 mm 3 m/s 761 mmHg 87%
22:00 +10°C° 0 mm 3 m/s 761 mmHg 86%
23:00 +12°C° 0 mm 2 m/s 761 mmHg 85%
Mostrar mais

Necessitamos do seu Consentimento

A Meteoprog e os seus Fornecedores de Serviços podem armazenar e aceder a dados pessoais como cookies, identificadores do dispositivo ou outras tecnologias semelhantes existentes no seu dispositivo e processar estes dados para personalizar conteúdos e anúncios, assim como funcionalidades nas redes sociais e análise de tráfego.

  • Armazenar e/ou aceder a informações no seu dispositivo

    Os cookies, identificadores do dispositivo ou outras informações podem ser armazenados ou acedidos no seu dispositivo, para os fins acima indicados.

  • Anúncios e conteúdos personalizados, medição de anúncios e conteúdos, dados sobre o público-alvo e desenvolvimento de produtos

    Os anúncios e os conteúdos podem ser personalizados com base num perfil. Podem ser adicionados dados adicionais para uma maior personalização dos anúncios e dos conteúdos. A eficácia dos anúncios e dos conteúdos pode ser medida. Podem ser obtidas informações sobre o público que visualizou os anúncios e os conteúdos. Estes dados podem ser usados para desenvolver ou melhorar sistemas, softwares ou a experiência do utilizador.

Ao clicar em "Eu concordo”, permitirá o uso de cookies, identificadores do dispositivo e web beacons mencionados ou outras tecnologias semelhantes. As configurações do navegador do seu dispositivo podem ser alteradas.

Para certos fins, podem ser invocados interesses legítimos ao invés de consentimento. Pode ler mais informação sobre este assunto na nossa Política de Privacidade e Cookies.